Weather Roundup
Issued by NWS

Home | Current Version | Previous Version | Graphics & Text | Print | Product List | Glossary Off
Versions: 1 2 3 4 5 6 7 8 9 10 11 12 13 14 15 16 17 18 19 20 21 22 23 24 25 26 27 28 29 30 31 32 33 34 35 36 37 38 39 40 41 42 43 44 45 46 47 48 49 50

631
NZUS93 KARX 060610
HRRWXR

CURRENT HOURLY OBSERVATIONS ACROSS
MUCH OF THE UPPER MISSISSIPPI VALLEY
NATIONAL WEATHER SERVICE LA CROSSE WI
1200 AM CST SAT FEB 06 2016


...SOUTHEAST MINNESOTA...


CITY           SKY/WX    TMP DP  RH WIND       PRES   REMARKS
ROCHESTER      CLOUDY    23  21  92 SW16      30.19S FOG     WCI  10
ROCHESTER/MAYO CLOUDY    25  24  96 SW9       30.19F WCI  15
WINONA         CLOUDY    28  21  74 SW3       30.23F
AUSTIN         LGT SNOW  25  23  93 SW7       30.20R WCI  17
ALBERT LEA     CLOUDY    25  25 100 SW7       30.19S FOG     WCI  17
DODGE CENTER   CLOUDY    23  21  93 SW10      30.17F FOG     WCI  12
PRESTON        CLOUDY    23  21  91 SW10      30.19S WCI  12
OWATONNA       MOCLDY    27  23  86 SW10      30.17F WCI  17
FARIBAULT      CLOUDY    27  23  86 S8        30.18S FOG     WCI  18
$$

...ELSEWHERE IN MINNESOTA...


CITY           SKY/WX    TMP DP  RH WIND       PRES   REMARKS
MINNEAPOLIS    CLOUDY    26  21  81 SW6       30.17F WCI  19
INTNL FALLS    CLOUDY    21  15  78 W6        30.03S WCI  13
DULUTH         MOCLDY    22  14  71 W12       30.04F WCI  10
RED WING       CLOUDY    25  19  80 S6        30.18F WCI  18
REDWOOD FALLS  CLEAR     25  22  88 SW6       30.17F WCI  18
MANKATO        CLOUDY    25  21  86 SW6       30.18S WCI  18
WORTHINGTON    CLEAR     21  18  86 W9        30.18S WCI  11
FAIRMONT       CLOUDY    28  23  80 W10       30.18F WCI  19
$$

...SOUTHWEST WISCONSIN...


CITY           SKY/WX    TMP DP  RH WIND       PRES   REMARKS
LA CROSSE      CLOUDY    25  18  74 S6        30.24S WCI  18
PRAIRIE DU CHI CLOUDY    28  19  71 SW5       30.27F WCI  22
BOSCOBEL       CLOUDY    27  22  81 SW5       30.27F WCI  22
LONE ROCK      CLOUDY    27  19  72 SW7       30.28S WCI  19
PLATTEVILLE    CLOUDY    26  24  89 SW7       30.26F WCI  19
FORT MC COY    CLOUDY    25  19  80 CALM      30.24F
CAMP DOUGLAS   CLOUDY    25  23  90 SW7       30.21F WCI  17
VIROQUA        CLOUDY    24  20  87 SW9       30.21F WCI  14
WIS DELLS      CLOUDY    25  18  74 SW10      30.24S WCI  15
$$

...ELSEWHERE IN WISCONSIN...


CITY           SKY/WX    TMP DP  RH WIND       PRES   REMARKS
MILWAUKEE      CLOUDY    29  19  66 SW9       30.27F WCI  20
MADISON        CLOUDY    27  18  69 SW7       30.26S WCI  19
GREEN BAY      CLOUDY    23  17  78 S9        30.21F WCI  13
EAU CLAIRE     CLOUDY    23  16  74 SW12      30.17F WCI  12
BLACK RVR FLS  CLOUDY    24  18  75 SW3       30.22S
MEDFORD        FLURRIES  20  16  82 SW8       30.13F WCI  10
WAUSAU         FLURRIES  23  15  71 SW9       30.14F WCI  13
WIS RAPIDS     CLOUDY    23  15  71 SW8       30.22F WCI  14
MARSHFIELD     CLOUDY    23  14  68 SW12      30.16F WCI  12
RICE LAKE      CLOUDY    24  20  87 S6        30.15F WCI  16
$$

...NORTHEAST IOWA...


CITY           SKY/WX    TMP DP  RH WIND       PRES   REMARKS
WATERLOO       CLOUDY    27  22  81 S9        30.25F WCI  18
DUBUQUE        CLOUDY    26  22  84 SW8       30.27S WCI  18
DECORAH        CLOUDY    25  23  93 VRB7G15   30.21F WCI  17
MASON CITY     CLOUDY    25  25 100 SW10      30.21F FOG     WCI  15
CHARLES CITY   CLOUDY    25  25 100 S12       30.22F WCI  14
OELWEIN        CLOUDY    27  23  86 S10       30.24F WCI  17
$$

...ELSEWHERE IN IOWA...


CITY           SKY/WX    TMP DP  RH WIND       PRES   REMARKS
DES MOINES     CLOUDY    31  25  78 SW5       30.26R WCI  26
IOWA CITY      CLOUDY    27  23  85 CALM      30.31S
FORT DODGE     CLOUDY    28  25  86 S5        30.22F WCI  23
MARSHALLTOWN   CLOUDY    28  24  85 S7        30.25S WCI  21
CEDAR RAPIDS   CLOUDY    27  23  85 S6        30.27F WCI  20
$$

...NORTHERN ILLINOIS...


CITY           SKY/WX    TMP DP  RH WIND       PRES   REMARKS
CHICAGO-OHARE  CLOUDY    27  22  81 SW5       30.31S WCI  22
CHICAGO-MIDWAY MOCLDY    27  20  75 SW6       30.32S WCI  20
MOLINE         CLOUDY    29  22  75 SW3       30.30F
ROCKFORD       CLOUDY    27  23  85 S5        30.32S WCI  22
PEORIA         CLOUDY    26  20  77 SE3       30.32F
$$

NOTE: "FAIR" INDICATES FEW OR NO CLOUDS BELOW 12,000 FEET WITH NO
SIGNIFICANT WEATHER AND/OR OBSTRUCTIONS TO VISIBILITY. WIND
SPEEDS ARE IN MILES-PER-HOUR.




USA.gov is the U.S. government's official web portal to all federal, state and local government web resources and services.